Theta_e
317 316 313 311 309 309 309 309 310 310 311 311 311 311 310 309 309 314 321 322 322 322 333 340 342 346 346 348 346 346 356 362 360 353 351 344 345 344 340 341 344 342 340 339 338
317 316 312 310 310 309 310 310 310 310 311 311 311 311 310 309 320 321 319 316 318 322 337 341 344 344 348 346 347 350 361 358 357 353 349 345 346 344 342 343 343 342 340 339 339
316 314 312 310 310 310 310 310 310 310 311 311 311 311 310 310 328 323 318 315 319 322 339 340 339 342 349 346 349 351 359 355 355 352 351 344 345 343 345 345 343 343 342 341 341
317 316 312 312 311 312 313 314 313 312 312 312 312 311 311 325 334 324 314 319 320 328 332 337 338 343 349 351 349 354 351 353 353 352 350 348 345 346 346 344 342 341 341 341 342
317 318 315 313 312 312 313 314 314 313 314 313 311 311 321 331 333 321 317 318 322 327 329 336 336 345 351 350 350 351 352 351 350 352 352 349 347 345 345 343 341 341 342 342 342
318 318 317 315 314 313 312 313 315 314 313 312 312 315 330 334 331 330 321 324 325 325 329 333 336 341 349 350 353 350 350 350 351 352 352 353 349 347 345 342 343 343 343 343 344
319 319 318 318 316 314 313 313 314 316 313 314 314 324 334 333 329 329 326 324 325 328 331 332 337 345 351 351 350 351 354 352 351 349 352 352 351 353 346 342 344 344 344 343 343
318 319 318 319 318 315 313 317 316 316 315 316 316 330 334 329 328 325 326 325 324 328 328 329 329 333 348 348 352 354 354 359 353 349 349 351 356 352 347 343 343 343 344 344 344
317 317 319 319 319 316 313 319 317 315 317 317 328 334 333 327 326 321 323 324 325 328 328 325 331 341 347 353 355 355 358 356 354 349 352 350 352 346 348 345 343 343 345 345 345
315 316 317 319 319 318 314 320 316 317 318 326 329 332 330 327 326 321 322 322 329 330 329 329 336 347 346 351 357 351 350 352 353 353 353 349 347 347 348 348 350 344 346 347 346
314 315 316 318 319 319 316 325 332 332 332 332 330 329 328 325 324 323 323 326 331 330 331 331 338 343 348 347 347 347 345 350 352 352 351 352 347 349 347 345 351 347 346 346 346
312 314 316 317 319 319 313 328 326 325 327 328 327 327 327 323 324 325 324 328 330 330 331 332 333 338 338 340 344 343 346 348 351 351 351 352 352 349 347 347 347 348 345 346 346
312 314 315 316 318 316 321 326 325 324 328 328 327 327 326 324 324 326 326 327 328 329 330 330 332 332 333 336 337 339 339 344 352 351 349 350 353 352 348 346 348 347 347 345 345
311 314 315 317 317 321 323 324 324 324 331 330 327 328 327 325 325 326 325 325 325 326 328 327 330 332 332 331 335 336 335 335 341 349 358 348 360 355 352 346 347 344 345 347 344
313 314 316 318 323 323 323 323 323 325 338 329 328 327 327 327 326 324 324 325 323 324 325 327 327 329 330 331 333 336 336 336 340 342 346 346 350 346 351 352 350 348 345 345 346
315 315 318 323 321 324 320 322 324 331 334 329 329 328 328 327 326 324 324 325 323 323 324 325 327 328 330 330 330 333 335 337 339 340 342 347 338 350 348 350 353 350 348 347 347
317 317 317 322 327 322 319 323 331 333 333 330 328 328 328 328 327 325 324 324 325 326 327 325 328 328 329 334 335 335 336 344 345 346 350 344 336 345 344 339 344 348 349 349 349
318 319 323 322 324 321 320 325 331 331 332 330 329 328 328 329 328 327 326 326 325 326 327 327 328 329 329 334 337 335 336 340 347 342 347 341 333 343 336 339 342 343 344 346 348
319 325 325 323 322 320 322 325 327 328 330 332 330 329 329 329 329 329 329 329 328 326 327 328 329 330 331 330 332 334 334 332 331 332 333 334 337 335 336 339 342 341 345 347 349
320 326 324 319 321 320 322 323 326 325 329 330 331 330 331 330 329 330 330 329 329 327 326 330 331 332 332 330 330 330 333 333 331 335 340 338 337 339 342 341 341 342 344 348 349
323 330 327 321 319 322 322 324 324 324 327 330 331 331 330 330 330 329 330 330 329 327 326 327 330 335 332 331 332 332 331 332 332 336 339 337 341 339 340 338 341 344 343 346 346
328 332 327 320 323 323 324 324 317 324 325 327 331 332 331 330 330 329 330 330 329 329 328 328 330 337 335 333 334 335 334 332 335 336 337 339 337 339 337 341 342 343 343 344 345
331 328 327 323 328 327 325 325 324 323 323 327 328 330 330 331 331 329 329 329 329 329 330 329 329 332 337 336 333 331 331 332 333 333 337 338 342 339 339 341 342 343 343 344 344
330 332 332 330 329 330 331 329 326 324 322 324 326 329 331 331 331 331 330 329 329 329 338 332 331 331 333 338 335 335 332 333 333 334 335 335 340 340 339 341 342 343 344 342 345
329 333 329 334 334 332 331 331 331 329 327 324 325 327 329 333 332 330 330 330 329 333 330 330 332 331 332 336 334 333 331 330 334 333 335 334 335 335 338 338 342 343 345 343 345
324 325 325 327 328 329 324 330 330 330 330 331 328 327 327 331 334 333 334 331 331 331 332 331 333 332 333 333 332 330 330 328 329 332 333 333 334 333 337 338 338 343 343 344 342
317 319 322 325 327 328 329 328 328 328 330 331 331 331 332 331 333 333 333 333 333 334 333 332 332 333 334 334 331 332 330 329 329 330 331 333 332 332 337 339 340 343 341 339 338
Wind_Speed
15 13 12 10 9 8 7 7 7 7 6 6 6 6 7 7 6 7 10 2 6 9 11 10 10 11 9 9 2 8 7 6 2 9 13 13 12 7 7 11 5 3 19 21 20
16 14 12 9 8 7 7 7 7 6 6 6 5 5 6 7 9 14 11 9 10 12 13 12 12 10 14 4 4 6 2 2 8 10 11 12 9 11 10 10 10 13 23 23 19
17 14 12 10 8 8 7 7 7 6 5 4 4 4 5 5 12 7 11 10 11 14 14 12 8 12 7 3 1 5 2 2 6 10 7 12 9 4 12 9 13 16 19 18 17
19 16 12 10 8 8 7 7 6 6 4 3 4 4 5 6 3 9 10 13 11 11 12 11 12 7 8 7 11 4 5 2 6 3 0 8 7 16 5 11 15 16 17 15 13
21 17 14 11 9 8 8 7 4 3 3 4 5 4 2 9 3 7 12 11 9 10 13 11 11 4 14 6 7 10 5 5 2 1 2 4 10 7 12 10 14 17 16 15 9
23 19 15 12 10 9 8 7 4 1 3 4 4 3 6 13 7 8 11 11 12 12 12 11 8 10 8 3 5 13 9 7 9 5 2 5 8 5 12 13 14 15 15 13 17
24 22 18 14 12 11 10 8 5 3 3 4 3 4 11 3 2 7 12 13 12 11 11 8 10 9 7 11 15 15 15 10 10 2 1 6 9 4 10 12 15 16 12 13 12
25 24 19 17 14 12 11 10 6 7 5 4 4 6 2 4 3 7 12 13 11 12 10 5 9 15 4 12 15 12 12 3 8 5 4 9 1 7 10 12 14 15 12 11 14
27 25 21 18 15 12 10 6 1 8 6 4 5 10 5 7 9 11 12 13 13 12 9 8 12 15 8 3 6 16 13 10 2 11 2 3 3 11 9 13 11 13 15 12 12
27 26 22 19 16 11 5 2 4 6 5 6 12 8 9 12 11 12 12 10 14 11 11 12 9 14 10 5 2 1 13 12 9 10 10 11 13 14 11 12 5 14 16 15 6
28 28 24 19 16 10 2 2 5 7 14 14 11 8 8 7 13 13 13 15 14 11 14 12 13 11 16 13 22 18 9 14 9 16 10 10 14 12 13 10 23 13 11 15 9
30 31 27 20 16 8 6 9 7 7 10 15 7 7 2 11 13 14 16 13 14 15 15 9 13 3 7 9 11 0 12 3 9 12 7 10 12 11 10 11 9 6 15 10 14
33 32 29 21 14 7 13 11 4 8 8 12 10 12 11 14 12 16 17 17 14 16 15 14 7 4 4 8 10 10 4 9 13 11 11 10 5 14 14 13 11 11 6 12 9
35 34 31 18 4 5 13 9 6 6 6 16 12 7 11 13 10 18 19 13 9 15 14 12 15 3 9 10 12 5 2 1 6 5 3 8 1 15 15 15 16 14 12 14 9
36 38 27 9 10 11 3 4 6 7 6 14 14 14 14 16 14 14 18 13 14 13 9 14 12 10 12 13 7 4 5 8 8 10 15 7 5 5 14 16 16 13 16 15 14
37 36 13 3 7 7 4 4 7 7 6 10 10 12 15 14 9 11 14 14 14 14 14 19 5 10 14 5 5 4 9 4 10 12 9 5 11 6 5 11 13 19 18 15 14
37 23 4 5 2 3 6 8 7 11 7 10 16 17 16 12 11 13 16 17 12 11 13 14 12 12 6 12 8 13 13 4 6 4 5 9 8 10 14 4 6 6 4 6 12
35 9 6 6 5 4 10 10 11 8 15 3 14 14 16 13 12 16 16 16 17 17 11 12 16 17 11 18 2 13 12 4 13 9 10 12 3 7 8 9 7 7 4 2 6
26 3 6 1 6 7 9 12 14 14 7 5 12 11 14 14 12 16 16 15 17 16 17 12 14 19 12 12 11 5 6 10 11 6 7 4 6 9 8 8 8 5 6 2 2
16 8 3 1 6 10 9 16 13 2 7 7 15 17 16 18 14 12 15 15 15 14 19 7 8 13 12 11 12 13 12 8 8 4 8 5 6 7 12 8 7 5 6 4 3
7 5 6 3 7 8 10 14 13 8 8 12 13 20 13 17 19 16 13 11 13 14 15 16 11 2 10 12 17 11 13 11 12 5 6 5 7 9 7 4 8 8 2 7 1
7 4 5 5 7 9 11 16 4 9 11 14 10 15 15 14 14 13 15 13 13 16 17 17 10 14 21 8 4 12 10 14 9 9 7 6 3 13 9 9 3 9 6 8 4
7 5 3 7 7 8 12 6 10 12 15 11 13 14 13 14 10 16 16 12 8 13 9 13 13 12 7 16 12 10 14 14 13 14 4 8 6 8 9 9 6 9 8 7 4
5 3 4 5 6 11 12 8 12 12 15 13 10 14 8 13 14 12 14 8 6 14 8 11 16 17 11 9 2 9 12 6 12 10 10 12 15 11 10 7 7 7 4 5 5
3 4 4 5 2 8 10 12 10 13 10 13 12 16 16 12 16 16 17 13 7 5 10 15 18 20 15 22 13 10 7 8 12 14 15 6 4 7 11 8 9 7 9 5 5
6 5 10 12 12 10 9 12 14 13 7 11 16 16 13 12 14 14 11 7 11 14 12 18 18 20 17 21 18 10 9 10 13 12 13 13 11 3 11 6 5 9 9 7 6
12 10 6 9 10 9 9 9 9 9 9 15 12 9 8 10 10 10 12 14 15 15 10 16 16 18 17 17 15 13 12 15 14 13 12 12 9 9 9 7 8 10 9 7 5
Wind_Direction
351 344 337 327 316 307 299 292 287 283 284 285 293 293 289 287 286 247 238 125 190 196 184 195 211 214 229 240 292 277 257 256 266 156 119 127 116 76 91 150 60 57 133 128 144
354 352 350 343 332 319 309 299 291 284 284 283 282 282 282 293 275 245 223 235 208 190 201 197 207 206 232 188 228 266 346 14 35 240 130 131 121 128 157 127 107 103 107 133 150
8 2 0 357 349 335 326 312 290 279 272 271 264 264 267 296 261 153 186 201 188 188 231 239 288 250 340 162 350 332 141 125 52 45 14 120 127 116 37 143 131 126 133 147 159
11 10 4 356 350 345 338 326 300 279 260 232 232 248 272 262 230 100 161 174 180 196 245 235 250 256 185 142 125 88 102 38 50 74 249 126 102 118 185 84 123 134 141 153 165
14 9 5 358 347 342 342 345 329 283 241 204 203 217 254 215 72 141 160 173 180 213 235 240 269 3 264 81 65 116 127 58 21 289 243 142 145 125 88 112 122 133 149 154 127
12 8 3 355 346 335 331 334 337 266 210 193 199 229 241 244 110 152 171 182 208 217 229 249 296 313 333 71 118 112 113 82 312 315 209 273 133 76 121 130 128 148 153 154 160
9 5 1 351 341 335 324 313 279 235 200 202 210 241 256 17 153 182 188 205 212 224 243 234 296 272 58 114 113 120 120 153 231 297 47 197 109 127 150 145 146 147 149 156 151
7 3 358 351 342 335 328 327 239 215 209 223 236 245 279 124 202 197 192 201 214 226 259 300 278 275 151 125 161 140 123 143 187 207 338 305 180 334 162 165 164 150 144 153 150
2 359 355 350 339 333 327 333 251 193 207 216 244 227 191 152 203 193 193 201 201 215 231 271 268 251 223 119 354 168 120 126 154 182 216 261 202 267 243 153 191 165 155 163 161
357 354 349 346 337 327 317 304 131 155 218 242 266 257 178 209 179 172 194 208 193 202 229 238 242 228 231 105 341 251 106 149 142 192 182 184 196 202 216 188 1 185 161 167 287
353 350 345 341 334 316 215 191 204 202 212 254 151 253 147 150 158 187 185 187 196 213 226 201 242 249 175 117 208 249 86 103 105 154 169 227 172 167 184 209 165 217 179 175 187
351 347 341 337 328 292 230 253 38 351 291 205 239 255 225 168 180 179 184 198 201 211 228 207 243 205 142 217 240 199 93 40 123 160 193 200 177 156 185 195 194 254 174 175 168
348 344 337 334 320 247 233 273 315 327 257 165 192 206 182 192 190 174 197 217 197 223 219 256 257 44 302 273 258 230 160 185 144 178 218 180 205 169 176 179 201 220 282 207 185
347 341 332 330 285 216 226 233 256 307 271 155 184 193 164 204 202 182 201 210 227 237 237 238 264 233 238 251 265 226 23 232 178 147 311 157 237 275 184 181 186 210 226 221 200
345 338 329 305 306 244 71 203 274 255 271 152 159 135 174 214 126 196 182 212 248 220 248 229 227 240 235 246 227 71 229 225 254 258 206 182 121 226 157 183 194 214 207 230 216
342 335 333 327 225 249 244 239 250 235 258 156 144 188 181 216 189 144 191 221 227 246 217 271 213 211 224 229 254 309 235 260 228 231 233 169 282 158 341 165 210 188 217 219 220
339 331 318 269 34 216 222 230 223 247 92 164 175 181 201 188 169 172 185 200 209 215 212 218 219 216 256 212 176 218 216 210 265 212 8 199 280 118 178 75 85 113 119 208 226
338 316 289 238 260 229 212 221 245 244 236 113 192 187 207 190 201 188 194 213 222 228 221 207 197 206 194 251 301 246 275 219 244 217 144 197 218 93 81 109 124 159 135 196 221
340 246 232 98 224 211 219 223 218 259 307 192 208 228 216 223 228 197 216 219 215 218 249 201 249 171 202 228 246 269 244 316 314 247 277 185 124 162 126 156 164 186 105 149 47
329 267 92 150 175 210 229 243 246 253 335 294 268 203 237 206 206 229 212 218 233 205 239 282 207 184 189 234 249 274 309 218 235 263 255 69 204 150 169 145 183 159 168 122 132
282 255 83 226 199 224 228 236 246 185 251 261 257 261 241 263 202 225 227 217 207 189 208 253 260 203 154 210 237 197 239 252 264 246 277 250 67 79 87 144 170 117 113 104 99
290 265 71 201 221 222 238 244 353 254 208 253 261 289 274 264 266 230 238 247 182 224 196 227 244 178 215 182 152 280 260 237 237 206 316 326 21 103 114 120 133 121 146 125 90
305 302 154 231 256 227 241 264 256 250 239 234 241 251 260 260 262 261 243 242 184 232 209 220 244 257 175 190 204 237 238 257 269 287 238 282 107 106 124 141 150 163 158 159 144
286 274 163 220 286 284 304 266 247 218 272 282 270 274 265 258 265 264 265 214 232 241 10 269 244 244 245 51 211 218 224 233 266 261 242 236 135 165 144 150 165 183 158 173 155
327 34 3 286 117 322 302 286 284 258 200 255 244 250 251 258 252 245 244 266 198 196 243 235 247 252 284 178 271 235 271 279 220 261 278 334 247 105 121 154 178 190 162 179 163
334 343 344 287 274 271 254 259 256 259 255 257 238 261 220 244 259 267 329 269 286 194 226 235 241 253 232 253 197 251 268 258 269 248 256 269 279 58 122 141 185 174 168 178 168
353 317 286 293 274 275 271 285 276 296 291 267 306 307 254 263 349 331 305 292 286 295 234 240 243 249 253 242 261 225 245 259 245 236 240 256 239 265 135 173 182 165 172 165 154